• Join FlightAware (Why Join?)
  • Login
  • US Flag 
09:16PM EDT


 

Airport Tracker/Info


-or-


 

Live Flight TrackerFlight Track Log ✈ ASQ6115 ✈ 09-Jun-2013 ✈ KMFE - KIAH

Flight Track Log - Related Links

Times and Time Zones

All times are in EDT time to prevent confusion due to time zone crossing. See the ASQ6115 flight status page for this flight to view local times or setup timezone preferences in your user account.

Time Position Orientation Groundspeed Altitude Reporting Facility
EDT Latitude Longitude Course Direction KTS MPH feet Rate Location/Type
09:58AM 26.1681 -98.1903 72° East 197 227 2,200  Level Houston Center
09:59AM 26.1994 -98.1714 28° Northeast 223 257 2,900 1,440 Climbing Houston Center
09:59AM 26.2322 -98.1589 19° North 270 311 3,700 1,860 Climbing Houston Center
10:00AM 26.2703 -98.1425 21° North 265 305 4,800 2,100 Climbing Houston Center
10:00AM 26.3025 -98.1286 21° North 287 330 5,800 2,160 Climbing Houston Center
10:01AM 26.4339 -98.1081 24° Northeast  Level FlightAware Approximate
10:01AM 26.3439 -98.1111 21° North 281 323 7,000  Level Houston Center
10:01AM 26.3769 -98.0956 23° Northeast 287 330 8,200 2,280 Climbing Houston Center
10:02AM 26.5000 -98.0750 24° Northeast  Level FlightAware Approximate
10:02AM 26.4247 -98.0778 18° North 285 328 9,400  Level Houston Center
10:02AM 26.4517 -98.0650 23° Northeast 285 328 10,100 1,140 Climbing Houston Center
10:03AM 26.5665 -98.0427 22° Northeast  Level FlightAware Approximate
10:03AM 26.5014 -98.0447 20° North 292 336 10,600  Level Houston Center
10:04AM 26.5911 -98.0072 20° North 334 384 11,500 900 Climbing Houston Center
10:05AM 26.6853 -97.9672 21° North 355 409 12,500 1,020 Climbing Houston Center
10:06AM 26.7894 -97.9228 21° North 370 426 13,700 1,140 Climbing Houston Center
10:07AM 26.8850 -97.8819 21° North 368 423 14,900 1,080 Climbing Houston Center
10:08AM 26.9811 -97.8411 21° North 369 425 16,000 1,020 Climbing Houston Center
10:09AM 27.0789 -97.7989 21° North 374 430 17,000 900 Climbing Houston Center
10:10AM 27.1661 -97.7619 21° North 374 430 17,900 960 Climbing Houston Center
10:11AM 27.2625 -97.7169 23° Northeast 375 432 19,000 1,080 Climbing Houston Center
10:12AM 27.3700 -97.6444 31° Northeast 374 430 20,200 1,080 Climbing Houston Center
10:13AM 27.4617 -97.5828 31° Northeast 382 440 21,200 960 Climbing Houston Center
10:14AM 27.5542 -97.5219 30° Northeast 386 444 22,200 960 Climbing Houston Center
10:15AM 27.6458 -97.4589 31° Northeast 386 444 23,200 960 Climbing Houston Center
10:16AM 27.7389 -97.3978 30° Northeast 386 444 24,200 840 Climbing Houston Center
10:17AM 27.8322 -97.3367 30° Northeast 388 447 25,000 360 Climbing Houston Center
10:18AM 27.9286 -97.2697 32° Northeast 399 459 25,000  Level Houston Center
10:19AM 28.0394 -97.1969 30° Northeast 421 484 25,000  Level Houston Center
10:20AM 28.1461 -97.1264 30° Northeast 438 504 25,000  Level Houston Center
10:21AM 28.2544 -97.0517 31° Northeast 451 519 25,000  Level Houston Center
10:22AM 28.3628 -96.9794 30° Northeast 452 520 25,000  Level Houston Center
10:23AM 28.4897 -96.8931 31° Northeast 447 514 25,000  Level Houston Center
10:24AM 28.5972 -96.8239 29° Northeast 444 511 25,000  Level Houston Center
10:25AM 28.7147 -96.7817 17° North 441 507 25,000  Level Houston Center
10:26AM 28.8339 -96.7350 19° North 453 521 25,000 -60 Level Houston Center
10:27AM 28.9469 -96.6700 27° Northeast 459 528 24,900 -660 Descending Houston Center
10:28AM 29.0408 -96.5711 43° Northeast 463 533 23,700 -2,040 Descending Houston Center
10:29AM 29.1378 -96.4508 47° Northeast 433 498 20,800 -2,760 Descending Houston Center
10:30AM 29.1786 -96.3917 52° Northeast 404 465 19,300 -2,340 Descending Houston Center
10:30AM 29.2072 -96.3519 50° Northeast 405 466 18,400 -2,460 Descending Houston Center
10:31AM 29.2803 -96.2778 42° Northeast 402 463 16,100 -2,340 Descending Houston Center
10:32AM 29.3889 -96.2250 23° Northeast 396 456 14,000 -1,920 Descending Houston Center
10:33AM 29.4703 -96.1439 41° Northeast 390 449 12,300 -1,020 Descending Houston Center
10:34AM 29.5492 -96.0606 43° Northeast 383 441 12,000 -180 Descending Houston Center
10:35AM 29.6244 -95.9850 41° Northeast 383 441 12,000  Level Houston Center
10:36AM 29.6314 -95.9761 48° Northeast 384 442 12,000 -600 Level Houston Center
10:36AM 29.6869 -95.8864 55° Northeast 382 440 11,400 -720 Descending Houston Center
10:37AM 29.6914 -95.8761 64° Northeast 387 445 11,300 -900 Descending Houston Center
10:37AM 29.7353 -95.7894 60° Northeast 333 383 10,500 -1,020 Descending Houston Center
10:38AM 29.7400 -95.7803 59° Northeast 351 404 10,300 -1,320 Descending Houston Center
10:38AM 29.7781 -95.7050 60° Northeast 299 344 9,200 -1,380 Descending Houston Center
10:39AM 29.7906 -95.6792 61° Northeast 305 351 8,900 -1,320 Descending Houston Center
10:39AM 29.8228 -95.6181 59° Northeast 296 341 7,900 -1,380 Descending Houston Center
10:40AM 29.8319 -95.5983 62° Northeast 294 338 7,500 -1,380 Descending Houston Center
10:40AM 29.8617 -95.5364 61° Northeast 291 335 6,500 -1,320 Descending Houston Center
10:41AM 29.8719 -95.5164 59° Northeast 292 336 6,200 -540 Descending Houston Center
10:41AM 29.8939 -95.4531 68° East 283 326 6,000 -240 Descending Houston Center
10:42AM 29.8956 -95.4306 85° East 287 330 6,000  Level Houston Center
10:42AM 29.8953 -95.3756 90° East 249 287 6,000  Level Houston Center
10:43AM 29.8956 -95.3497 89° East 254 292 6,000  Level Houston Center
10:43AM 29.8964 -95.2961 89° East 249 287 6,000  Level Houston Center
10:44AM 29.8969 -95.2706 89° East 248 285 6,000  Level Houston Center
10:44AM 29.8969 -95.2117 90° East 221 254 6,000  Level Houston Center
10:45AM 29.8969 -95.1981 90° East 230 265 6,000  Level Houston Center
10:45AM 29.8953 -95.1467 92° East 224 258 6,000 -240 Level Houston Center
10:46AM 29.8969 -95.1272 84° East 223 257 5,800 -900 Descending Houston Center
10:46AM 29.8931 -95.0772 95° East 213 245 5,100 -1,140 Descending Houston Center
10:47AM 29.8933 -95.0586 89° East 216 249 4,700 -1,020 Descending Houston Center
10:47AM 29.9369 -95.0525 North 228 262 4,100 -780 Descending Houston Center
10:48AM 29.9503 -95.0597 335° Northwest 224 258 3,900 -900 Descending Houston Center
10:48AM 29.9753 -95.1031 304° West 218 251 3,200 -900 Descending Houston Center
10:49AM 29.9875 -95.1269 301° West 215 247 3,000 -420 Descending Houston Center
10:49AM 29.9933 -95.1636 280° West 192 221 2,800 -600 Descending Houston Center
10:50AM 29.9936 -95.1878 271° West 201 231 2,400 -900 Descending Houston Center